User: anonymous   Login
Location: Pabrico
(37.5827°N, 122.0063°W)
Time: 00:10:50
(UTC+00:00)
Language:

Chandra Rocket (1) - Orbit

View from above orbital plane
View from above orbital plane
View from above satellite
View from above satellite

Ground track
Ground track

The orbit data is extracted from the following two-line orbital elements,

1 25868U 99040C   24168.85904500  .00007449  00000-0  78166-3 0  9998
2 25868  28.4535  92.0220 4424839 206.7346 121.3274  6.63211482564373
Epoch (UTC): 16 June 2024 20:37:01
Eccentricity: 0.4424839
inclination: 28.4535°
perigee height: 293 km
apogee height: 10883 km
right ascension of ascending node: 92.0220°
argument of perigee: 206.7346°
revolutions per day: 6.63211482
mean anomaly at epoch: 121.3274°
orbit number at epoch: 56437

The dashed part of the orbit path shows where the satellite is in the earth's shadow,  

DLR